| time (UTC) | temp C | wind direction | speed KPH | gust KPH | rain 1hr cm | rain 24hr cm | rain mn cm | humidity % | barometer mb |
| 20260902163249 | 28 | 0.0 | 0.0 | 0.00 | 0.00 | 0.00 | 3 | 996.4 | |
| 20260902161819 | 28 | 0.0 | 0.0 | 0.00 | 0.00 | 0.00 | 3 | 996.4 | |
| 20260902160334 | 27 | 0.0 | 0.0 | 0.00 | 0.00 | 0.00 | 3 | 996.6 | |
| 20260902154934 | 27 | 0.0 | 0.0 | 0.00 | 0.00 | 0.00 | 3 | 996.6 | |
| 20260902153534 | 27 | 0.0 | 0.0 | 0.00 | 0.00 | 0.00 | 3 | 996.6 | |
| 20260902152044 | 27 | 0.0 | 0.0 | 0.00 | 0.00 | 0.00 | 3 | 996.6 | |
| 20260902150714 | 27 | 0.0 | 0.0 | 0.00 | 0.00 | 0.00 | 3 | 996.7 | |
| 20260902145404 | 28 | 0.0 | 0.0 | 0.00 | 0.00 | 0.00 | 3 | 996.7 | |
| 20260902144204 | 28 | 0.0 | 0.0 | 0.00 | 0.00 | 0.00 | 3 | 996.7 | |
| 20260902142709 | 28 | 0.0 | 0.0 | 0.00 | 0.00 | 0.00 | 3 | 996.7 | |
| 20260902141419 | 29 | 0.0 | 0.0 | 0.00 | 0.00 | 0.00 | 3 | 996.7 | |
| 20260902140014 | 30 | 0.0 | 0.0 | 0.00 | 0.00 | 0.00 | 3 | 996.7 | |
| 20260902134514 | 30 | 0.0 | 0.0 | 0.00 | 0.00 | 0.00 | 3 | 996.7 | |
| 20260902133234 | 30 | 0.0 | 0.0 | 0.00 | 0.00 | 0.00 | 3 | 996.7 | |
| 20260902131919 | 28 | 0.0 | 0.0 | 0.00 | 0.00 | 0.00 | 3 | 996.9 | |
| 20260902130614 | 29 | 0.0 | 0.0 | 0.00 | 0.00 | 0.00 | 3 | 997.0 | |
| 20260902125354 | 28 | 0.0 | 0.0 | 0.00 | 0.00 | 0.00 | 3 | 997.0 | |
| 20260902124044 | 28 | 0.0 | 0.0 | 0.00 | 0.00 | 0.00 | 3 | 997.2 | |
| 20260902122719 | 29 | 0.0 | 0.0 | 0.00 | 0.00 | 0.00 | 3 | 997.2 | |
| 20260902121444 | 30 | 0.0 | 0.0 | 0.00 | 0.00 | 0.00 | 3 | 997.1 | |
| 20260902120154 | 28 | 0.0 | 0.0 | 0.00 | 0.00 | 0.00 | 3 | 997.2 | |
| 20260902114914 | 28 | 0.0 | 0.0 | 0.00 | 0.00 | 0.00 | 3 | 997.3 | |
| 20260902113614 | 28 | 0.0 | 0.0 | 0.00 | 0.00 | 0.00 | 3 | 997.4 | |
| 20260902112334 | 27 | 0.0 | 0.0 | 0.00 | 0.00 | 0.00 | 4 | 997.6 | |
| 20260902110849 | 26 | 0.0 | 0.0 | 0.00 | 0.00 | 0.00 | 4 | 997.7 | |
| 20260902105604 | 25 | 0.0 | 0.0 | 0.00 | 0.00 | 0.00 | 4 | 997.8 | |
| 20260902104319 | 26 | 0.0 | 0.0 | 0.00 | 0.00 | 0.00 | 4 | 997.9 | |
| 20260902103054 | 26 | 0.0 | 0.0 | 0.00 | 0.00 | 0.00 | 4 | 998.0 | |
| 20260902101654 | 25 | 0.0 | 0.0 | 0.00 | 0.00 | 0.00 | 4 | 998.2 | |
| 20260902100349 | 25 | 0.0 | 0.0 | 0.00 | 0.00 | 0.00 | 4 | 998.2 | |
| 20260902095120 | 26 | 0.0 | 0.0 | 0.00 | 0.00 | 0.00 | 4 | 998.2 | |
| 20260902093739 | 25 | 0.0 | 0.0 | 0.00 | 0.00 | 0.00 | 4 | 998.3 | |
| 20260902092305 | 26 | 0.0 | 0.0 | 0.00 | 0.00 | 0.00 | 4 | 998.3 | |
| 20260902090834 | 24 | 0.0 | 0.0 | 0.00 | 0.00 | 0.00 | 4 | 998.5 | |
| 20260902085434 | 22 | 0.0 | 0.0 | 0.00 | 0.00 | 0.00 | 5 | 998.3 | |
| 20260902083933 | 21 | 0.0 | 0.0 | 0.00 | 0.00 | 0.00 | 5 | 998.3 | |
| 20260902082534 | 21 | 0.0 | 0.0 | 0.00 | 0.00 | 0.00 | 5 | 998.1 | |
| 20260902081134 | 21 | 0.0 | 0.0 | 0.00 | 0.00 | 0.00 | 5 | 998.1 | |
| 20260902075911 | 21 | 0.0 | 0.0 | 0.00 | 0.00 | 0.00 | 5 | 998.1 | |
| 20260902074600 | 21 | 0.0 | 0.0 | 0.00 | 0.00 | 0.00 | 6 | 998.0 | |
| 20260902073204 | 21 | 0.0 | 0.0 | 0.00 | 0.00 | 0.00 | 5 | 997.7 | |
| 20260902071734 | 19 | 0.0 | 0.0 | 0.00 | 0.00 | 0.00 | 6 | 997.7 | |
| 20260902070504 | 18 | 0.0 | 0.0 | 0.00 | 0.00 | 0.00 | 6 | 997.8 | |
| 20260902065140 | 20 | 0.0 | 0.0 | 0.00 | 0.00 | 0.00 | 6 | 998.0 | |
| 20260902063719 | 20 | 0.0 | 0.0 | 0.00 | 0.00 | 0.00 | 6 | 998.0 | |
| 20260902062229 | 20 | 0.0 | 0.0 | 0.00 | 0.00 | 0.00 | 5 | 997.8 | |
| 20260902060849 | 20 | 0.0 | 0.0 | 0.00 | 0.00 | 0.00 | 5 | 997.9 | |
| 20260902055639 | 20 | 0.0 | 0.0 | 0.00 | 0.00 | 0.00 | 5 | 997.9 | |
| 20260902054429 | 18 | 0.0 | 0.0 | 0.00 | 0.00 | 0.00 | 6 | 997.8 | |
| 20260902053109 | 20 | 0.0 | 0.0 | 0.00 | 0.00 | 0.00 | 5 | 997.7 | |
| 20260902051834 | 20 | 0.0 | 0.0 | 0.00 | 0.00 | 0.00 | 5 | 997.8 | |
| 20260902050439 | 20 | 0.0 | 0.0 | 0.00 | 0.00 | 0.00 | 5 | 997.7 | |
| 20260902045114 | 20 | 0.0 | 0.0 | 0.00 | 0.00 | 0.00 | 6 | 997.8 | |
| 20260902043834 | 17 | 0.0 | 0.0 | 0.00 | 0.00 | 0.00 | 6 | 997.8 | |
| 20260902042449 | 18 | 0.0 | 0.0 | 0.00 | 0.00 | 0.00 | 6 | 997.8 | |
| 20260902041014 | 20 | 0.0 | 0.0 | 0.00 | 0.00 | 0.00 | 5 | 997.7 | |
| 20260902035807 | 20 | 0.0 | 0.0 | 0.00 | 0.00 | 0.00 | 5 | 997.7 | |
| 20260902034449 | 20 | 0.0 | 0.0 | 0.00 | 0.00 | 0.00 | 6 | 997.8 | |
| 20260902033124 | 21 | 0.0 | 0.0 | 0.00 | 0.00 | 0.00 | 5 | 997.6 | |
| 20260902031920 | 20 | 0.0 | 0.0 | 0.00 | 0.00 | 0.00 | 5 | 997.7 | |
| 20260902030610 | 20 | 0.0 | 0.0 | 0.00 | 0.00 | 0.00 | 5 | 997.8 | |
| 20260902025220 | 20 | 0.0 | 0.0 | 0.00 | 0.00 | 0.00 | 5 | 997.8 | |
| 20260902023924 | 20 | 0.0 | 0.0 | 0.00 | 0.00 | 0.00 | 5 | 997.8 | |
| 20260902022539 | 20 | 0.0 | 0.0 | 0.00 | 0.00 | 0.00 | 5 | 997.8 | |
| 20260902021329 | 21 | 0.0 | 0.0 | 0.00 | 0.00 | 0.00 | 5 | 997.7 | |
| 20260902020034 | 21 | 0.0 | 0.0 | 0.00 | 0.00 | 0.00 | 5 | 997.7 | |
| 20260902014744 | 21 | 0.0 | 0.0 | 0.00 | 0.00 | 0.00 | 5 | 997.7 | |
| 20260902013451 | 21 | 0.0 | 0.0 | 0.00 | 0.00 | 0.00 | 5 | 997.6 | |
| 20260902012134 | 20 | 0.0 | 0.0 | 0.00 | 0.00 | 0.00 | 5 | 997.8 | |
| 20260902010819 | 21 | 0.0 | 0.0 | 0.00 | 0.00 | 0.00 | 5 | 997.8 | |
| 20260902005559 | 22 | 0.0 | 0.0 | 0.00 | 0.00 | 0.00 | 5 | 997.8 | |
| 20260902004309 | 22 | 0.0 | 0.0 | 0.00 | 0.00 | 0.00 | 5 | 997.9 | |
| 20260902002959 | 22 | 0.0 | 0.0 | 0.00 | 0.00 | 0.00 | 5 | 998.0 | |
| 20260902001614 | 21 | 0.0 | 0.0 | 0.00 | 0.00 | 0.00 | 5 | 998.1 | |
| 20260902000124 | 22 | 0.0 | 0.0 | 0.00 | 0.00 | 0.00 | 5 | 998.2 | |
| 20260901234739 | 22 | 0.0 | 0.0 | 0.00 | 0.00 | 0.00 | 5 | 998.2 | |
| 20260901233320 | 22 | 0.0 | 0.0 | 0.00 | 0.00 | 0.00 | 5 | 998.1 | |
| 20260901232054 | 23 | 0.0 | 0.0 | 0.00 | 0.00 | 0.00 | 4 | 998.2 | |
| 20260901230659 | 23 | 0.0 | 0.0 | 0.00 | 0.00 | 0.00 | 4 | 998.1 | |
| 20260901225300 | 23 | 0.0 | 0.0 | 0.00 | 0.00 | 0.00 | 4 | 998.2 | |
| 20260901223809 | 23 | 0.0 | 0.0 | 0.00 | 0.00 | 0.00 | 4 | 998.2 | |
| 20260901222359 | 23 | 0.0 | 0.0 | 0.00 | 0.00 | 0.00 | 4 | 998.2 | |
| 20260901220939 | 23 | 0.0 | 0.0 | 0.00 | 0.00 | 0.00 | 4 | 998.1 | |
| 20260901215620 | 23 | 0.0 | 0.0 | 0.00 | 0.00 | 0.00 | 4 | 998.1 | |
| 20260901214204 | 23 | 0.0 | 0.0 | 0.00 | 0.00 | 0.00 | 4 | 998.0 | |
| 20260901212705 | 23 | 0.0 | 0.0 | 0.00 | 0.00 | 0.00 | 4 | 998.0 | |
| 20260901211424 | 24 | 0.0 | 0.0 | 0.00 | 0.00 | 0.00 | 4 | 998.0 | |
| 20260901210114 | 24 | 0.0 | 0.0 | 0.00 | 0.00 | 0.00 | 4 | 998.0 | |
| 20260901204619 | 24 | 0.0 | 0.0 | 0.00 | 0.00 | 0.00 | 4 | 998.0 | |
| 20260901203124 | 25 | 0.0 | 0.0 | 0.00 | 0.00 | 0.00 | 4 | 997.9 | |
| 20260901201820 | 25 | 0.0 | 0.0 | 0.00 | 0.00 | 0.00 | 4 | 997.9 | |
| 20260901200349 | 25 | 0.0 | 0.0 | 0.00 | 0.00 | 0.00 | 4 | 997.8 | |
| 20260901194904 | 26 | 0.0 | 0.0 | 0.00 | 0.00 | 0.00 | 4 | 997.8 | |
| 20260901193619 | 26 | 0.0 | 0.0 | 0.00 | 0.00 | 0.00 | 4 | 997.7 | |
| 20260901192334 | 26 | 0.0 | 0.0 | 0.00 | 0.00 | 0.00 | 4 | 997.7 | |
| 20260901190940 | 26 | 0.0 | 0.0 | 0.00 | 0.00 | 0.00 | 4 | 997.6 | |
| 20260901185734 | 26 | 0.0 | 0.0 | 0.00 | 0.00 | 0.00 | 3 | 997.5 | |
| 20260901184449 | 26 | 0.0 | 0.0 | 0.00 | 0.00 | 0.00 | 3 | 997.5 | |
| 20260901183100 | 27 | 0.0 | 0.0 | 0.00 | 0.00 | 0.00 | 3 | 997.4 | |
| 20260901181640 | 28 | 0.0 | 0.0 | 0.00 | 0.00 | 0.00 | 3 | 997.2 | |
| 20260901180259 | 28 | 0.0 | 0.0 | 0.00 | 0.00 | 0.00 | 3 | 997.1 | |
| 20260901175024 | 28 | 0.0 | 0.0 | 0.00 | 0.00 | 0.00 | 3 | 997.1 | |
| 20260901173605 | 28 | 0.0 | 0.0 | 0.00 | 0.00 | 0.00 | 3 | 997.1 | |
| 20260901172309 | 28 | 0.0 | 0.0 | 0.00 | 0.00 | 0.00 | 3 | 997.1 | |
| 20260901170819 | 28 | 0.0 | 0.0 | 0.00 | 0.00 | 0.00 | 3 | 997.2 | |
| 20260901165524 | 29 | 0.0 | 0.0 | 0.00 | 0.00 | 0.00 | 3 | 997.2 | |
| 20260901164220 | 28 | 0.0 | 0.0 | 0.00 | 0.00 | 0.00 | 3 | 997.2 |